Showing default

NUSAT-34 (AMELIA EARHART, 55045

Orbit data source: Space-Track

NUSAT-34 (AMELIA EARHART, 55045 is a payload satellite owned by URUGUS S.A. (AR) in SSO that was launched on Tue, 03 Jan 2023 UTC via an FALCON 9 launch vehicle from the Air Force Eastern Test Range (AFETR). Payloads include a variety of satellites, spacecraft, and rockets equipped with specific instruments for various scientific and technological missions. These include communications satellites like Starlink; space stations such as the ISS; scientific satellites like the Hubble; Earth observation satellites from companies like Planet Labs, Umbra, and HawkEye 360; GPS; miniature CubeSats for education and research; and military/defense satellites.

Loading next visibility...
NUSAT-34 (AMELIA EARHART details
Identifier
55045, 2023-001AN
Orbit
SSO
Last TLE update11 hours ago
Origin
Flag of ARURUGUS S.A. (AR / ARGN)
ManufacturerURUGUS S.A.
MissionOperational Commercial Imaging
Bus & MotorNEWSAT V, Unknown motor
Mass41.5 kg wet, 38.5 kg dry
Launch date (UTC)
2023-01-03 (2 years ago)
Launch vehicle
FALCON 9
Launch site
Air Force Eastern Test Range (AFETR)
Object type
Payload
Rocket body
Debris
Shape & HBRBox, 0.813 m
Radar Cross Section0.542 m², Medium (>0.1 m² and < 1m²)

Expand to show TLE details & history

TLE from 11 hours ago
0 NUSAT-34 (AMELIA EARHART
1 55045U 23001AN  25040.17703816  .00020263  00000-0  75280-3 0  9997
2 55045  97.3828 104.6092 0009064  41.7513 318.4417 15.27542325116990
Epoch: 2025-02-09T04:14Z
Definitive object data (Epoch: 2025-02-09T04:14:56.097Z)
Latitude0.00007°
Longitude-98.63886°
Altitude481.611 km
Speed7.627 km/s
True Right ascension06h 58m 26s
True Declination0° 00' 00"
Sunlit
Object was in full shadow at TLE epoch
Visualization TLE readout
Latitude24.71585°
Longitude-101.58069°
Altitude480.251 km
Speed7.631 km/s
Apparent Right ascension06h 17m 51s
Apparent Declination-6° 18' 53"
Sunlit
Object is in full shadow
Visualization observer readout
Local Sidereal Time17:41:07
Azimuth343.783° N
Elevation-55.401°
Doppler factor1
Orbital elements
Apogee altitude486.333 km
Perigee altitude473.9 km
Semi-major axis6,858.254 km
Eccentricity0.0009064
Inclination97.3828°
RAAN104.6092°
Arg. of periapsis41.7513°
True anomaly318.37274°
Mean anomaly318.4417°
Eccentric anomaly318.40723°
Mean motion3.8214 °/min
BSTAR0.0007528
Orbital period94.21 mins
Loading maneuver chart data...
Loading historical data...
Loading historical data...
Loading historical data...
Loading historical data...
Loading historical data...
Loading historical data...
Loading historical data...

NUSAT-34 (AMELIA EARHART Visibility forecast

Observer location: undefined°, undefined

Span
Click to sort rows by Start time (UTC) header in descending order
Start Az.
Max El. time (UTC)
Max El. Az.
Max El.
End time (UTC)
End Az.
6 mins2025-02-09 17:22:43.333Z357.927° N2025-02-09 17:25:43.333Z292.765° NW35.618°2025-02-09 17:28:43.333Z214.722° SW
5 mins2025-02-10 03:58:43.333Z142.591° SSE2025-02-10 04:00:43.333Z62.899° ENE38.5°2025-02-10 04:03:43.333Z358.846° N
|